TimeEDT,TemperatureF,Dew PointF,Humidity,Sea Level PressureIn,VisibilityMPH,Wind Direction,Wind SpeedMPH,Gust SpeedMPH,PrecipitationIn,Events,Conditions,WindDirDegrees,DateUTC
12:35 AM,71.6,69.8,94,30.07,10.0,North,3.5,-,N/A,,Clear,10,2013-08-24 04:35:00
12:53 AM,73.0,70.0,90,30.05,-9999.0,NNE,4.6,-,N/A,,Unknown,30,2013-08-24 04:53:00
12:55 AM,71.6,69.8,94,30.06,10.0,NNE,4.6,-,N/A,,Clear,30,2013-08-24 04:55:00
1:35 AM,71.6,69.8,94,30.06,10.0,NE,3.5,-,N/A,,Clear,40,2013-08-24 05:35:00
1:53 AM,73.0,70.0,90,30.04,-9999.0,Calm,Calm,-,N/A,,Unknown,0,2013-08-24 05:53:00
1:55 AM,71.6,69.8,94,30.06,10.0,Calm,Calm,-,N/A,,Clear,0,2013-08-24 05:55:00
2:35 AM,71.6,69.8,94,30.05,10.0,Calm,Calm,-,N/A,,Clear,0,2013-08-24 06:35:00
2:53 AM,73.0,70.0,90,30.03,-9999.0,Calm,Calm,-,N/A,,Unknown,0,2013-08-24 06:53:00
2:55 AM,71.6,69.8,94,30.05,10.0,Calm,Calm,-,N/A,,Clear,0,2013-08-24 06:55:00
3:15 AM,71.6,69.8,94,30.03,10.0,Calm,Calm,-,N/A,,Clear,0,2013-08-24 07:15:00
3:35 AM,71.6,69.8,94,30.03,10.0,Calm,Calm,-,N/A,,Clear,0,2013-08-24 07:35:00
3:53 AM,73.0,70.0,90,30.01,-9999.0,Calm,Calm,-,N/A,,Unknown,0,2013-08-24 07:53:00
4:15 AM,71.6,69.8,94,30.03,10.0,Calm,Calm,-,N/A,,Clear,0,2013-08-24 08:15:00
4:35 AM,71.6,69.8,94,30.03,10.0,Calm,Calm,-,N/A,,Clear,0,2013-08-24 08:35:00
4:53 AM,73.9,70.0,87,30.03,-9999.0,Calm,Calm,-,N/A,,Unknown,0,2013-08-24 08:53:00
5:15 AM,71.6,69.8,94,30.04,10.0,Calm,Calm,-,N/A,,Clear,0,2013-08-24 09:15:00
5:35 AM,71.6,69.8,94,30.04,10.0,NE,3.5,-,N/A,,Clear,40,2013-08-24 09:35:00
5:53 AM,73.0,70.0,90,30.04,-9999.0,NNE,5.8,-,N/A,,Unknown,20,2013-08-24 09:53:00
6:15 AM,71.6,69.8,94,30.06,10.0,NNE,4.6,-,N/A,,Clear,30,2013-08-24 10:15:00
6:35 AM,71.6,69.8,94,30.06,10.0,Calm,Calm,-,N/A,,Clear,0,2013-08-24 10:35:00
6:53 AM,73.0,70.0,90,30.05,-9999.0,NNE,3.5,-,N/A,,Unknown,30,2013-08-24 10:53:00
7:15 AM,71.6,69.8,94,30.08,10.0,NE,3.5,-,N/A,,Clear,40,2013-08-24 11:15:00
7:35 AM,71.6,69.8,94,30.09,10.0,NNE,4.6,-,N/A,,Clear,30,2013-08-24 11:35:00
7:53 AM,73.0,70.0,90,30.07,-9999.0,NE,3.5,-,N/A,,Unknown,40,2013-08-24 11:53:00
7:55 AM,71.6,69.8,94,30.09,10.0,Calm,Calm,-,N/A,,Clear,0,2013-08-24 11:55:00
8:15 AM,71.6,69.8,94,30.10,10.0,Calm,Calm,-,N/A,,Clear,0,2013-08-24 12:15:00
8:35 AM,71.6,69.8,94,30.10,10.0,Calm,Calm,-,N/A,,Clear,0,2013-08-24 12:35:00
8:53 AM,75.0,70.0,84,30.09,-9999.0,NE,5.8,-,N/A,,Unknown,50,2013-08-24 12:53:00
8:55 AM,71.6,69.8,94,30.10,10.0,NE,3.5,-,N/A,,Clear,40,2013-08-24 12:55:00
9:15 AM,73.4,69.8,88,30.10,10.0,ENE,4.6,-,N/A,,Clear,60,2013-08-24 13:15:00
9:35 AM,73.4,69.8,88,30.11,10.0,NE,4.6,-,N/A,,Clear,50,2013-08-24 13:35:00
9:53 AM,77.0,71.1,82,30.10,-9999.0,NE,5.8,-,N/A,,Unknown,40,2013-08-24 13:53:00
9:55 AM,75.2,69.8,83,30.11,10.0,NE,5.8,-,N/A,,Clear,50,2013-08-24 13:55:00
10:15 AM,75.2,69.8,83,30.12,10.0,NE,6.9,-,N/A,,Clear,50,2013-08-24 14:15:00
10:35 AM,77.0,69.8,78,30.13,10.0,NE,4.6,-,N/A,,Clear,50,2013-08-24 14:35:00
10:53 AM,79.0,71.1,77,30.12,-9999.0,NE,4.6,-,N/A,,Unknown,50,2013-08-24 14:53:00
10:55 AM,77.0,71.6,83,30.13,10.0,NE,4.6,-,N/A,,Clear,40,2013-08-24 14:55:00
11:15 AM,77.0,71.6,83,30.13,10.0,ENE,4.6,-,N/A,,Clear,60,2013-08-24 15:15:00
11:35 AM,77.0,71.6,83,30.13,10.0,NE,4.6,-,N/A,,Scattered Clouds,50,2013-08-24 15:35:00
11:53 AM,81.0,72.0,74,30.12,-9999.0,Variable,3.5,-,N/A,,Unknown,0,2013-08-24 15:53:00
11:55 AM,78.8,71.6,78,30.13,10.0,East,4.6,-,N/A,,Scattered Clouds,80,2013-08-24 15:55:00
12:15 PM,78.8,71.6,78,30.13,10.0,ESE,3.5,-,N/A,,Clear,120,2013-08-24 16:15:00
12:35 PM,78.8,71.6,78,30.13,10.0,SE,5.8,-,N/A,,Clear,130,2013-08-24 16:35:00
12:53 PM,81.0,73.0,77,30.11,-9999.0,Calm,Calm,-,N/A,,Unknown,0,2013-08-24 16:53:00
12:55 PM,78.8,71.6,78,30.13,10.0,Calm,Calm,-,N/A,,Clear,0,2013-08-24 16:55:00
1:15 PM,78.8,71.6,78,30.13,10.0,Calm,Calm,-,N/A,,Clear,0,2013-08-24 17:15:00
1:35 PM,80.6,73.4,79,30.12,10.0,Calm,Calm,-,N/A,,Clear,0,2013-08-24 17:35:00
1:53 PM,82.0,73.9,76,30.11,-9999.0,Calm,Calm,-,N/A,,Unknown,0,2013-08-24 17:53:00
1:55 PM,80.6,73.4,79,30.12,10.0,ENE,3.5,-,N/A,,Scattered Clouds,70,2013-08-24 17:55:00
2:15 PM,80.6,73.4,79,30.12,10.0,NNE,4.6,-,N/A,,Scattered Clouds,20,2013-08-24 18:15:00
2:35 PM,80.6,73.4,79,30.12,10.0,East,3.5,-,N/A,,Mostly Cloudy,90,2013-08-24 18:35:00
2:53 PM,82.9,75.0,77,30.10,-9999.0,Calm,Calm,-,N/A,,Unknown,0,2013-08-24 18:53:00
2:55 PM,80.6,73.4,79,30.11,10.0,Calm,Calm,-,N/A,,Mostly Cloudy,0,2013-08-24 18:55:00
3:15 PM,80.6,73.4,79,30.10,10.0,NE,4.6,-,N/A,,Scattered Clouds,50,2013-08-24 19:15:00
3:35 PM,80.6,73.4,79,30.10,10.0,NNE,8.1,-,N/A,,Scattered Clouds,30,2013-08-24 19:35:00
3:53 PM,84.0,73.9,72,30.08,-9999.0,Variable,5.8,-,N/A,,Unknown,0,2013-08-24 19:53:00
3:55 PM,82.4,73.4,74,30.09,10.0,ENE,5.8,-,N/A,,Scattered Clouds,70,2013-08-24 19:55:00
4:15 PM,82.4,73.4,74,30.08,10.0,NE,5.8,-,N/A,,Scattered Clouds,40,2013-08-24 20:15:00
4:35 PM,82.4,73.4,74,30.08,10.0,NNE,8.1,-,N/A,,Scattered Clouds,30,2013-08-24 20:35:00
4:53 PM,84.9,73.0,67,30.07,-9999.0,Variable,6.9,-,N/A,,Unknown,0,2013-08-24 20:53:00
4:55 PM,82.4,71.6,70,30.08,10.0,ENE,5.8,-,N/A,,Scattered Clouds,60,2013-08-24 20:55:00
5:15 PM,82.4,71.6,70,30.09,10.0,NE,4.6,-,N/A,,Scattered Clouds,40,2013-08-24 21:15:00
5:35 PM,82.4,73.4,74,30.09,10.0,NE,4.6,-,N/A,,Scattered Clouds,50,2013-08-24 21:35:00
5:53 PM,84.9,73.9,69,30.07,-9999.0,NNE,8.1,-,N/A,,Unknown,30,2013-08-24 21:53:00
5:55 PM,82.4,71.6,70,30.08,10.0,NE,8.1,-,N/A,,Clear,40,2013-08-24 21:55:00
6:15 PM,82.4,73.4,74,30.08,10.0,ENE,5.8,-,N/A,,Clear,60,2013-08-24 22:15:00
6:35 PM,82.4,73.4,74,30.08,10.0,East,5.8,-,N/A,,Clear,80,2013-08-24 22:35:00
6:53 PM,84.0,73.0,69,30.08,-9999.0,Variable,3.5,-,N/A,,Unknown,0,2013-08-24 22:53:00
6:55 PM,82.4,71.6,70,30.09,10.0,East,3.5,-,N/A,,Clear,100,2013-08-24 22:55:00
7:15 PM,80.6,71.6,74,30.10,10.0,Calm,Calm,-,N/A,,Clear,0,2013-08-24 23:15:00
7:53 PM,81.0,72.0,74,30.08,-9999.0,Calm,Calm,-,N/A,,Unknown,0,2013-08-24 23:53:00
7:55 PM,78.8,71.6,78,30.10,10.0,Calm,Calm,-,N/A,,Clear,0,2013-08-24 23:55:00
8:15 PM,78.8,71.6,78,30.11,10.0,Calm,Calm,-,N/A,,Clear,0,2013-08-25 00:15:00
8:53 PM,79.0,72.0,79,30.09,-9999.0,Calm,Calm,-,N/A,,Unknown,0,2013-08-25 00:53:00
8:55 PM,77.0,71.6,83,30.10,10.0,Calm,Calm,-,N/A,,Clear,0,2013-08-25 00:55:00
9:15 PM,77.0,71.6,83,30.11,10.0,Calm,Calm,-,N/A,,Clear,0,2013-08-25 01:15:00
9:53 PM,77.0,72.0,84,30.10,-9999.0,Calm,Calm,-,N/A,,Unknown,0,2013-08-25 01:53:00
9:55 PM,73.4,71.6,94,30.12,10.0,Calm,Calm,-,N/A,,Clear,0,2013-08-25 01:55:00
10:15 PM,75.2,71.6,89,30.13,10.0,Calm,Calm,-,N/A,,Clear,0,2013-08-25 02:15:00
10:53 PM,77.0,73.0,88,30.12,-9999.0,NE,3.5,-,N/A,,Unknown,40,2013-08-25 02:53:00
10:55 PM,75.2,71.6,89,30.13,10.0,NE,3.5,-,N/A,,Clear,50,2013-08-25 02:55:00
11:15 PM,75.2,71.6,89,30.13,10.0,NE,3.5,-,N/A,,Clear,50,2013-08-25 03:15:00
11:35 PM,75.2,71.6,89,30.15,10.0,ENE,3.5,-,N/A,,Mostly Cloudy,60,2013-08-25 03:35:00
11:53 PM,77.0,73.0,88,30.14,-9999.0,Calm,Calm,-,N/A,,Unknown,0,2013-08-25 03:53:00
11:55 PM,75.2,71.6,89,30.15,10.0,Calm,Calm,-,N/A,,Overcast,0,2013-08-25 03:55:00